This is the latest recevied weather packets stored in our database for station/object IZ1UQG-1. If no packets are shown the sender has not sent any weather packets the latest 10 day(s).
| Time | Temp. | Humidity | Pressure | Rain* | Wind** | Luminosity | Snow |
|---|---|---|---|---|---|---|---|
| 1777775940 | 15° C | 59% | 1020 hPa | 10.67 mm | - | - | - |
| 1777775640 | 15° C | 58% | 1020.1 hPa | 33.53 mm | - | - | - |
| 1777775340 | 15° C | 58% | 1020.1 hPa | 16 mm | - | - | - |
| 1777775040 | 15° C | 58% | 1020.1 hPa | 4.06 mm | - | - | - |
| 1777774740 | 15° C | 58% | 1020.1 hPa | 185.42 mm | - | - | - |
| 1777774440 | 15° C | 58% | 1020.3 hPa | 19.05 mm | - | - | - |
| 1777774140 | 15° C | 58% | 1020.2 hPa | 248.67 mm | - | - | - |
| 1777773840 | 15° C | 58% | 1020.3 hPa | 192.79 mm | - | - | - |
| 1777773540 | 15° C | 58% | 1020.2 hPa | 105.66 mm | - | - | - |
| 1777773240 | 15° C | 58% | 1020.2 hPa | 192.28 mm | - | - | - |
| 1777772940 | 15° C | 58% | 1020.3 hPa | 157.99 mm | - | - | - |
| 1777772640 | 15° C | 58% | 1020.3 hPa | 157.48 mm | - | - | - |
| 1777772340 | 15° C | 57% | 1020.3 hPa | 134.11 mm | - | - | - |
| 1777772040 | 15° C | 57% | 1020.3 hPa | 214.38 mm | - | - | - |
| 1777771740 | 15.56° C | 57% | 1020.3 hPa | 201.93 mm | - | - | - |
| 1777771440 | 15.56° C | 57% | 1020.4 hPa | 161.54 mm | - | - | - |
| 1777771140 | 15.56° C | 57% | 1020.3 hPa | 215.39 mm | - | - | - |
| 1777770840 | 15.56° C | 56% | 1020.3 hPa | 201.93 mm | - | - | - |
| 1777770540 | 15.56° C | 56% | 1020.4 hPa | 192.79 mm | - | - | - |
| 1777770240 | 15.56° C | 56% | 1020.5 hPa | 205.23 mm | - | - | - |
| 1777769940 | 15.56° C | 56% | 1020.5 hPa | 144.02 mm | - | - | - |
| 1777769640 | 15.56° C | 56% | 1020.6 hPa | 183.39 mm | - | - | - |
| 1777769340 | 15.56° C | 56% | 1020.7 hPa | 128.02 mm | - | - | - |
| 1777769040 | 15.56° C | 56% | 1020.6 hPa | 122.17 mm | - | - | - |
| 1777768740 | 15.56° C | 56% | 1020.5 hPa | 96.27 mm | - | - | - |
* Rain latest hour (hover to see other rain measurements)
** Current wind speed in m/s (hover to see current wind gust speed)